Regional Weather Roundup
Issued by NWS

Home | Current Version | Previous Version | Text Only | Print | Product List | Glossary On
Versions: 1 2 3 4 5 6 7 8 9 10 11 12 13 14 15 16 17 18 19 20 21 22 23 24 25 26 27 28 29 30 31 32 33 34 35 36 37 38 39 40 41 42 43 44 45 46 47 48 49 50
000
ASUS44 KOUN 011810
RWROK

WEATHER ROUNDUP FOR OKLAHOMA
NATIONAL WEATHER SERVICE NORMAN OK
100 PM CDT SAT AUG 01 2015

NOTE: "FAIR" INDICATES FEW OR NO CLOUDS BELOW 12,000 FEET WITH NO
      SIGNIFICANT WEATHER AND/OR OBSTRUCTIONS TO VISIBILITY.

OKZ001>007-009>012-014-015-017-011900-
NORTHWEST OKLAHOMA AND THE PANHANDLE

CITY           SKY/WX    TMP DP  RH WIND       PRES   REMARKS
GAGE           PTSUNNY   86  66  51 CALM      30.08F
6HR MIN TEMP:  70; 6HR MAX TEMP:  87;

GUYMON         MOSUNNY   82  68  62 S13       30.09F
ENID/WOODRING  PTSUNNY   91  68  46 S10G16    30.05F HX  95
$$

OKZ016-021>023-033>039-044-045-011900-
SOUTHWEST OKLAHOMA

CITY           SKY/WX    TMP DP  RH WIND       PRES   REMARKS
LAWTON/REGL    PTSUNNY   87  68  52 VRB3      30.08F HX  90
6HR MIN TEMP:  74; 6HR MAX TEMP:  89;

LAWTON/FT SILL PTSUNNY   87  71  58 S7        30.06F HX  92
FREDERICK      CLOUDY    82  70  66 VRB5      30.07F
CLINTON        MOSUNNY   85  66  53 SW12      30.11F
HOBART         PTSUNNY   85  69  58 VRB6      30.10F
ALTUS AFB      PTSUNNY   81  68  65 S3        30.09F
$$

OKZ018>020-024>031-011900-
CENTRAL OKLAHOMA

CITY           SKY/WX    TMP DP  RH WIND       PRES   REMARKS
OKLAHOMA CITY  MOSUNNY   88  66  48 S12       30.08F HX  90
6HR MIN TEMP:  73; 6HR MAX TEMP:  88;

OKC/WILEY POST MOSUNNY   89  65  44 S12       30.08F HX  91
OKC/TINKER AFB SUNNY     87  62  42 S12       30.08F
STILLWATER     PTSUNNY   92  66  42 SW7       30.06F HX  94
GUTHRIE        PTSUNNY   91  66  43 S9        30.07F HX  93
$$

OKZ008-013-054>072-011900-
NORTHEAST OKLAHOMA

CITY           SKY/WX    TMP DP  RH WIND       PRES   REMARKS
TULSA          MOSUNNY   93  62  35 SW9       30.05F HX  93
6HR MIN TEMP:  73; 6HR MAX TEMP:  93;

TULSA/JONES    MOSUNNY   91  65  41 S8        30.07F HX  93
PONCA CITY     MOSUNNY   88  70  55 CALM      30.05F HX  93
BARTLESVILLE   SUNNY     91  68  46 SW9       30.06F HX  95
MUSKOGEE       PTSUNNY   88  69  53 SW7       30.09F HX  92
$$

OKZ032-040>043-046>053-073>077-011900-
SOUTH CENTRAL/SOUTHEAST OKLAHOMA

CITY           SKY/WX    TMP DP  RH WIND       PRES   REMARKS
ARDMORE/DWNTWN SUNNY     88  61  40 SE9       30.07F
MCALESTER      SUNNY     91  64  40 SW7       30.08F HX  92
$$



USA.gov is the U.S. government's official web portal to all federal, state and local government web resources and services.